#timestamp,LO_Frequency,Hit,StdDev 
1642467615.4,286046999.4,N
1642467635.2,286046996.6,N
1642467655.1,286046998.2,N
1642467656.0,286046998.2,N
1642467675.8,286046996.5,N
1642467695.7,286046996.8,N
1642467715.5,286046997.1,N
1642467735.3,286046997.1,N
1642467755.2,286046997.0,N
1642467775.0,286046999.2,N
1642467775.9,286046999.2,N
1642467795.8,286046996.8,N
1642467815.6,286046997.4,N
1642467835.4,286046997.7,N
1642467855.3,286046996.6,N
1642467875.1,286046996.6,N
1642467895.8,286046997.0,N
1642467915.7,286046999.1,N
1642467935.5,286046998.4,N
1642467955.4,286046998.2,N
1642467975.2,286046998.7,N
1642467995.0,286047000.7,N
1642467995.9,286047000.7,N
1642468015.8,286046998.2,N
1642468035.6,286046999.5,N
1642468055.4,286046996.9,N
1642468075.3,286046996.7,N
1642468095.1,286046997.5,N
1642468115.9,286046995.3,Y
1642468135.7,286046996.6,P
1642468155.5,286046999.3,N
1642468175.4,286046996.7,P
1642468195.2,286046999.3,N
1642468215.0,286046996.6,N
1642468215.9,286046996.6,N
1642468235.8,286046998.7,N
1642468255.6,286046996.7,N
1642468275.5,286046999.0,N
1642468295.3,286046997.0,N
1642468315.1,286046998.4,N
1642468335.9,286047000.9,N
1642468355.7,286046998.2,N
1642468375.6,286046998.5,N
1642468395.4,286046998.2,N
1642468415.2,286047000.4,N
1642468435.1,286047000.3,N
1642468436.0,286047000.3,N
1642468455.8,286047000.6,N
1642468475.6,286047000.9,N
1642468495.5,286047001.0,N
1642468515.3,286047001.2,N
1642468535.2,286046999.4,N
1642468555.9,286046996.5,N
1642468575.7,286046997.2,N
1642468595.6,286046997.5,N
1642468615.4,286046999.5,N
1642468635.3,286046997.7,N
1642468655.1,286046996.5,N
1642468656.0,286046996.5,N
1642468675.8,286046998.6,N
1642468695.7,286047000.9,N
1642468715.5,286047000.5,N
1642468735.3,286047001.0,N
1642468755.2,286047000.8,N
1642468775.0,286046998.6,N
1642468775.9,286046998.6,N
1642468795.8,286046999.1,N
1642468815.6,286046997.0,N
1642468835.4,286046998.2,N
1642468855.3,286046998.1,N
1642468875.1,286046999.0,N
1642468895.8,286046996.5,N
1642468915.7,286046996.5,N
1642468935.5,286046998.3,N
1642468955.4,286046999.7,N
1642468975.2,286046998.1,N
1642468995.0,286046999.3,N
1642468995.9,286046999.3,N
1642469015.8,286046998.1,N
1642469035.6,286046998.1,N
1642469055.4,286047000.6,N
1642469075.3,286046998.3,N
1642469095.1,286046998.2,N
1642469115.9,286046999.9,N
1642469135.7,286047002.2,N
1642469155.5,286047001.6,N
1642469175.4,286047002.5,N
1642469195.2,286047004.2,N
1642469215.0,286047002.9,N
1642469215.9,286047002.9,N
1642469235.8,286047003.5,N
1642469255.6,286047004.3,N
1642469275.5,286047002.5,N
1642469295.3,286047001.2,N
1642469315.1,286046998.2,N
1642469335.9,286047000.6,N
1642469355.7,286046998.6,N
1642469375.5,286046998.5,N
1642469395.4,286047000.0,N
1642469415.2,286047000.0,N
1642469435.1,286047001.1,N
1642469436.0,286047001.1,N
1642469455.8,286046998.3,N
1642469475.6,286046998.4,N
1642469495.5,286046998.2,N
1642469515.3,286046998.6,N
1642469535.2,286047000.6,N
1642469555.9,286047011.9,Y
1642469575.7,286047000.7,P
1642469595.6,286047000.7,P
1642469615.4,286046998.6,P
1642469635.2,286046998.7,N
1642469655.1,286046999.5,N
1642469656.0,286046999.5,N
1642469675.8,286046999.6,N
1642469695.7,286046999.2,N
1642469715.5,286046997.5,Y
1642469735.3,286046994.9,P
1642469755.2,286046997.6,N
1642469775.0,286046997.3,N
1642469775.9,286046997.3,N
1642469795.7,286046996.6,N
1642469815.6,286046999.6,N
1642469835.4,286046998.8,N
1642469855.3,286046996.5,N
1642469875.1,286046998.7,N
1642469876.0,286046998.7,N
1642469895.8,286046998.9,N
1642469915.7,286046999.5,N
1642469935.5,286046997.4,N
1642469955.4,286046994.9,Y
1642469975.2,286046999.0,P
1642469995.0,286046998.9,N
1642469995.9,286046998.9,N
1642470015.8,286046998.8,N
1642470035.6,286046999.2,N
1642470055.4,286046999.1,N
1642470075.3,286046998.4,Y
1642470095.1,286046999.8,P
1642470115.9,286047002.1,P
1642470135.7,286047000.0,N
1642470155.5,286046999.7,N
1642470175.4,286047000.3,N
1642470195.2,286047000.6,N
1642470215.0,286047000.6,N
1642470215.9,286047000.6,N
1642470235.8,286046999.9,N
1642470255.6,286047002.5,Y
1642470275.5,286047002.1,P
1642470295.3,286047002.2,N
1642470315.1,286047001.6,N
1642470335.9,286047002.1,N
1642470355.7,286047002.1,N
1642470375.6,286047000.4,N
1642470395.4,286047000.8,N
1642470415.2,286047001.2,N
1642470435.1,286046998.2,N
1642470436.0,286046998.2,N
1642470455.8,286046998.5,N
1642470475.6,286047001.1,N
1642470495.5,286047000.8,N
1642470515.3,286047000.6,N
1642470535.2,286047000.1,N
1642470555.9,286047000.5,N
1642470575.7,286047001.0,N
1642470595.6,286047001.0,N
1642470615.4,286047001.1,N
1642470635.2,286046999.0,N
1642470655.1,286047000.9,N
1642470656.0,286047000.9,N
1642470675.8,286046999.0,N
1642470695.7,286046999.5,N
1642470715.5,286046996.5,Y
1642470735.3,286046997.4,P
1642470755.2,286046995.2,P
1642470775.0,286046995.1,N
1642470775.9,286046995.1,N
1642470795.7,286046995.0,N
1642470815.6,286046997.3,N
1642470835.4,286046997.6,N
1642470855.3,286046997.9,N
1642470875.1,286046995.1,N
1642470876.0,286046995.1,N
1642470895.8,286046993.5,Y
1642470915.7,286046999.6,P
1642470935.5,286046998.1,N
1642470955.4,286046998.4,N
1642470975.2,286046997.9,N
1642470995.0,286046999.6,N
1642470995.9,286046999.6,N
1642471015.8,286046997.4,N
1642471035.6,286046999.1,N
1642471055.4,286046999.2,N
1642471075.3,286046999.4,N
1642471095.1,286046996.6,Y
1642471115.9,286046998.9,P
1642471135.7,286047001.0,P
1642471155.5,286047000.2,N
1642471175.4,286047002.2,N
1642471195.2,286047002.5,N
